[[{"header":{"parameterUnit":"m.s-1","parameterCategory":1,"la1":30.2991,"la2":30.254,"lo1":-89.0895,"lo2":-89.0444,"dy":0.0017,"dx":0.0017,"nx":28,"ny":28,"refTime":"2023-09-16T21:00:00:Z","depth":0,"parameterNumber":2,"parameterNumberName":"U-component_of_WINDS"},"data":[0,0,0,0,0,0,0,0,0,0,0,0,0,0,0,0,0,0,0,0,0,0,0,0,0,0,0,0,0,0,0,0,0,0,0,0,0,0,0,0,0,0,0,0,0,0,0,0,0,0,0,0,0,0,0,0,0,0,0.8942,0.8941,0,0.8901,0.89,0.89,0.8847,0.8846,0.8845,0.8844,0.8804,0.8804,0.8803,0,0,0,0,0,0,0,0,0,0,0,0,0,0.8976,0.8976,0.8942,0.8941,0.8941,0.8901,0.89,0.89,0.8847,0.8846,0.8845,0.8844,0.8804,0.8804,0.8803,0,0,0,0,0,0,0,0,0,0,0,0,0,0.8951,0.8976,0.8942,0.891,0.8906,0.8901,0.89,0.89,0.8847,0.8846,0.8845,0.8843,0.8804,0.8804,0.8803,0.8827,0,0,0.8802,0.8802,0,0,0,0,0,0,0,0,0.8952,0.895,0.8915,0.8912,0.8908,0.8878,0.8898,0.8875,0.8848,0.887,0.8844,0.8843,0.883,0.8827,0.8822,0.8825,0.8823,0.8802,0.8802,0.8802,0.8802,0,0,0,0,0,0,0,0.8954,0.8951,0.8926,0.8915,0.891,0.8898,0.8893,0.8893,0.8858,0.8868,0.8864,0.886,0.8828,0.8823,0.8821,0.8823,0.8802,0.8802,0.8802,0.8801,0.8843,0.8844,0,0,0,0,0,0,0.8961,0.8953,0.8927,0.8925,0.8928,0.8898,0.8893,0.8889,0.8857,0.8851,0.8861,0.8857,0.8824,0.8821,0.8819,0.8845,0.8802,0.8801,0.8801,0.8842,0.8843,0.8845,0,0,0,0,0,0,0.8962,0.8959,0.8929,0.8938,0.8933,0.8899,0.8895,0.8889,0.8884,0.8852,0.8846,0.8862,0.8823,0.882,0.8825,0.8843,0.8801,0.8801,0.884,0.8842,0.8844,0.8897,0,0,0,0,0,0,0.8963,0.8959,0.8968,0.8938,0.8933,0.8935,0.8896,0.8889,0.8883,0.8878,0.8852,0.8846,0.8822,0.8826,0.8825,0.8842,0.88,0.8838,0.8841,0.8843,0.8894,0.8901,0.8907,0,0,0,0,0,0.8964,0.8985,0.8968,0.8966,0.8942,0.8936,0.8933,0.8904,0.8885,0.8893,0.8873,0.8847,0.8841,0.8827,0.8825,0.8842,0.8837,0.884,0.8843,0.8891,0.89,0.8907,0,0,0,0,0,0,0.9018,0.898,0.8962,0.8973,0.8958,0.8927,0.8937,0.8914,0.8905,0.8901,0.8865,0.886,0.887,0.8856,0.8842,0.8864,0.8835,0.8838,0.8872,0.888,0.8887,0.889,0.88,0,0,0,0,0,0.9031,0.9029,0.8996,0.9009,0.9003,0.8971,0.8968,0.8946,0.893,0.8924,0.8903,0.8889,0.8883,0.8881,0.8874,0.8891,0.8885,0.8902,0.8909,0.8914,0.8917,0.8926,0.8933,0.8855,0.8855,0.8855,0,0,0.9058,0.9037,0.9038,0.902,0.9005,0.9005,0.8966,0.8967,0.8967,0.8924,0.8928,0.8913,0.8894,0.8905,0.8909,0.8895,0.8937,0.8918,0.8923,0.8923,0.893,0.8937,0.8944,0.8857,0.8856,0.8856,0,0,0.9107,0.9091,0.91,0.9087,0.9066,0.9045,0.9047,0.902,0.9008,0.9011,0.8979,0.8978,0.897,0.8958,0.8951,0.8995,0.8972,0.8994,0.9029,0.9037,0.9043,0.9049,0.9065,0.9072,0.8997,0.8997,0.8997,0,0.9144,0.9141,0.9108,0.9111,0.9104,0.9065,0.9074,0.9063,0.9042,0.9038,0.9021,0.901,0.8994,0.9003,0.9014,0.9009,0.9011,0.8997,0.9045,0.905,0.9055,0.907,0.9076,0.9,0.9,0.8999,0.8999,0,0.9187,0.9186,0.9196,0.9176,0.917,0.9176,0.9145,0.9143,0.9122,0.9103,0.9107,0.9087,0.9076,0.9076,0.9056,0.9082,0.9073,0.9051,0.9023,0.9066,0.908,0.9085,0.9004,0.9003,0.9002,0.9002,0,0,0.927,0.9231,0.9235,0.9226,0.92,0.9198,0.9203,0.9191,0.9191,0.9177,0.9181,0.9174,0.9154,0.9146,0.9124,0.9131,0.9169,0.9108,0.9107,0.9121,0.9197,0.9214,0.9222,0.9152,0.9153,0.9154,0.9199,0,0.9315,0.932,0.9291,0.9305,0.9303,0.9266,0.927,0.9255,0.9237,0.9233,0.9214,0.921,0.9183,0.9178,0.9183,0.9163,0.9184,0.9159,0.9156,0.9157,0.9163,0.9229,0.9247,0.9291,0.9204,0.9205,0.9205,0,0.9368,0.9357,0.937,0.9344,0.9342,0.9346,0.9334,0.9331,0.9313,0.9299,0.929,0.9265,0.9268,0.924,0.9244,0.9228,0.9225,0.9215,0.9216,0.9215,0.9185,0.9231,0.9303,0.931,0.9214,0.9213,0.9212,0,0.9428,0.9416,0.9423,0.9416,0.9385,0.9389,0.9376,0.9357,0.9352,0.9341,0.9338,0.9327,0.9322,0.9315,0.9287,0.9269,0.9295,0.9264,0.9285,0.9285,0.9293,0.9293,0.9367,0.9289,0.9289,0.9289,0.9289,0,0.9482,0.9492,0.945,0.9454,0.9464,0.943,0.9442,0.9425,0.9408,0.9409,0.9376,0.9377,0.934,0.9338,0.9316,0.9323,0.9321,0.9311,0.9305,0.9314,0.9316,0.9312,0.9309,0.9291,0.929,0.929,0.929,0,0.9551,0.9523,0.9528,0.9498,0.9491,0.95,0.9474,0.9477,0.9457,0.9459,0.9457,0.9426,0.9421,0.9392,0.9381,0.9367,0.9382,0.937,0.9388,0.9385,0.9407,0.9406,0.9482,0.9491,0.9407,0.9408,0.9409,0,0.9588,0.9595,0.9566,0.9564,0.9552,0.9549,0.9544,0.9511,0.9507,0.9487,0.9493,0.9485,0.9478,0.9472,0.9449,0.944,0.9428,0.9455,0.9426,0.9436,0.9429,0.943,0.9431,0.9462,0.9463,0.9464,0.9464,0,0.9657,0.9643,0.9636,0.9625,0.962,0.9609,0.9597,0.9598,0.9561,0.9558,0.9553,0.9547,0.9536,0.9529,0.9516,0.9503,0.9478,0.9473,0.9478,0.9488,0.9499,0.9494,0.9406,0.9472,0.9471,0.9471,0.947,0.947,0.9711,0.9716,0.9696,0.969,0.9677,0.9667,0.9668,0.9648,0.9643,0.9631,0.9612,0.9609,0.9591,0.9571,0.9561,0.9558,0.9544,0.955,0.9552,0.9554,0.9559,0.9498,0.9556,0.9555,0.9555,0.9555,0.9555,0,0.9779,0.9765,0.9759,0.9743,0.9739,0.9715,0.97,0.9698,0.9696,0.9681,0.9674,0.9668,0.9662,0.9637,0.9628,0.9631,0.9619,0.963,0.963,0.9627,0.9572,0.957,0.9639,0.9639,0.9639,0.9639,0.9639,0.9639,0.9814,0.9821,0.9804,0.9804,0.9789,0.9786,0.978,0.977,0.9758,0.9753,0.9747,0.9731,0.9712,0.9702,0.9694,0.9687,0.9686,0.97,0.969,0.9639,0.9631,0.9623,0.9621,0.97,0.97,0.9745,0.9746,0.9746]},{"header":{"parameterUnit":"m.s-1","parameterCategory":1,"la1":30.2991,"la2":30.254,"lo1":-89.0895,"lo2":-89.0444,"dy":0.0017,"dx":0.0017,"nx":28,"ny":28,"refTime":"2023-09-16T21:00:00:Z","depth":0,"parameterNumber":3,"parameterNumberName":"V-component_of_WINDS"},"data":[0,0,0,0,0,0,0,0,0,0,0,0,0,0,0,0,0,0,0,0,0,0,0,0,0,0,0,0,0,0,0,0,0,0,0,0,0,0,0,0,0,0,0,0,0,0,0,0,0,0,0,0,0,0,0,0,0,0,1.7283,1.7285,0,1.7439,1.744,1.7442,1.7519,1.7519,1.7519,1.7519,1.7675,1.7679,1.7684,0,0,0,0,0,0,0,0,0,0,0,0,0,1.7048,1.7052,1.7283,1.7285,1.7287,1.7438,1.744,1.7443,1.7519,1.7519,1.7519,1.7519,1.7674,1.7679,1.7684,0,0,0,0,0,0,0,0,0,0,0,0,0,1.7171,1.7053,1.7283,1.7343,1.735,1.7438,1.7441,1.7443,1.7519,1.7519,1.7519,1.7519,1.7672,1.7678,1.7685,1.7723,0,0,1.7704,1.7706,0,0,0,0,0,0,0,0,1.7164,1.718,1.7333,1.7339,1.7347,1.746,1.7415,1.7537,1.7519,1.7455,1.7519,1.7519,1.7603,1.7615,1.7644,1.773,1.7737,1.7704,1.7708,1.7711,1.7712,0,0,0,0,0,0,0,1.7155,1.7173,1.7345,1.7335,1.7344,1.7361,1.7379,1.7438,1.7527,1.7461,1.7467,1.7484,1.7607,1.7638,1.7649,1.7739,1.7704,1.771,1.7713,1.7716,1.7862,1.7862,0,0,0,0,0,0,1.7138,1.7166,1.734,1.7349,1.7254,1.7366,1.7385,1.7423,1.7527,1.7542,1.7484,1.7487,1.7627,1.7641,1.7654,1.7705,1.7711,1.7716,1.772,1.7861,1.7862,1.7862,0,0,0,0,0,0,1.7132,1.7152,1.7333,1.7259,1.7284,1.737,1.7412,1.7427,1.7457,1.7544,1.756,1.7499,1.7628,1.7646,1.7705,1.7711,1.7719,1.7725,1.7861,1.7861,1.7862,1.7807,0,0,0,0,0,0,1.7125,1.715,1.7167,1.7259,1.7287,1.7382,1.7412,1.743,1.7468,1.7474,1.7563,1.7578,1.7629,1.7695,1.7711,1.772,1.773,1.7861,1.7861,1.7862,1.7808,1.7805,1.7802,0,0,0,0,0,1.7116,1.7144,1.7167,1.7188,1.731,1.7383,1.7399,1.7459,1.7469,1.7485,1.754,1.7575,1.7708,1.7701,1.7719,1.773,1.7861,1.7861,1.7862,1.781,1.7806,1.7802,0,0,0,0,0,0,1.705,1.7158,1.7184,1.7243,1.7303,1.7396,1.7419,1.7453,1.751,1.7513,1.7584,1.7603,1.7656,1.7699,1.7689,1.7771,1.7788,1.7792,1.7742,1.7739,1.7736,1.7724,1.7735,0,0,0,0,0,1.7042,1.7093,1.7184,1.7228,1.7257,1.7332,1.7366,1.7407,1.7471,1.7497,1.7557,1.7617,1.7673,1.7708,1.7764,1.7814,1.7834,1.7831,1.7828,1.7825,1.7828,1.7856,1.7855,1.7863,1.7863,1.7863,0,0,1.7027,1.7092,1.712,1.7216,1.7267,1.7317,1.7353,1.7405,1.7442,1.7505,1.7565,1.761,1.7682,1.7737,1.7764,1.7774,1.783,1.7825,1.7822,1.7827,1.7856,1.7856,1.7855,1.7863,1.7863,1.7863,0,0,1.7024,1.7079,1.7121,1.7171,1.7249,1.7298,1.7308,1.7395,1.7428,1.7489,1.7537,1.7581,1.7676,1.7725,1.7762,1.7775,1.7809,1.7791,1.7775,1.7802,1.7802,1.7802,1.7806,1.7807,1.7794,1.7793,1.7793,0,1.6995,1.7074,1.7137,1.7187,1.7227,1.7285,1.7327,1.7373,1.7464,1.7489,1.75,1.7618,1.7671,1.7738,1.7741,1.7769,1.7781,1.7782,1.7797,1.7798,1.7798,1.7803,1.7804,1.7791,1.7791,1.7791,1.7792,0,1.7034,1.7087,1.7111,1.7199,1.7241,1.7286,1.7355,1.739,1.7426,1.7474,1.7534,1.7599,1.7669,1.7687,1.7723,1.7758,1.7762,1.7784,1.7802,1.7794,1.78,1.7802,1.7787,1.7788,1.7789,1.7789,0,0,1.6996,1.7116,1.7124,1.7164,1.7252,1.7294,1.7341,1.7409,1.7438,1.7498,1.7538,1.7615,1.7635,1.7677,1.7719,1.7742,1.7747,1.7761,1.7764,1.7756,1.7789,1.7773,1.7774,1.777,1.777,1.7771,1.7783,0,1.7006,1.7094,1.7151,1.7216,1.7265,1.732,1.7361,1.7418,1.7464,1.7511,1.756,1.7614,1.7637,1.7662,1.7688,1.7741,1.7755,1.7741,1.7807,1.7808,1.7788,1.7777,1.776,1.7769,1.7786,1.7786,1.7786,0,1.703,1.7089,1.7159,1.7241,1.7264,1.7299,1.7365,1.741,1.7476,1.7507,1.7553,1.7595,1.7644,1.7657,1.7725,1.7714,1.7744,1.7774,1.7776,1.7785,1.7797,1.7785,1.7773,1.7774,1.7791,1.779,1.779,0,1.6995,1.7092,1.7146,1.7178,1.7275,1.7298,1.7339,1.7405,1.7442,1.7499,1.7524,1.7585,1.7619,1.7665,1.7722,1.7726,1.7784,1.7802,1.7811,1.7809,1.7822,1.782,1.7814,1.784,1.784,1.784,1.784,0,1.7001,1.7041,1.7131,1.7164,1.721,1.7275,1.7318,1.7363,1.7421,1.7462,1.7513,1.7551,1.7623,1.7669,1.7714,1.7763,1.7778,1.7804,1.7815,1.78,1.7796,1.782,1.7821,1.784,1.784,1.784,1.784,0,1.697,1.7032,1.7095,1.7181,1.7203,1.7233,1.7306,1.734,1.7387,1.7438,1.7454,1.7528,1.7584,1.7645,1.7722,1.7752,1.7799,1.7815,1.7777,1.7784,1.7789,1.7788,1.7799,1.7803,1.7825,1.7825,1.7825,0,1.697,1.7003,1.7092,1.7124,1.7164,1.7215,1.7253,1.7316,1.7353,1.7429,1.7452,1.7513,1.7565,1.7652,1.7712,1.777,1.7788,1.7788,1.7797,1.778,1.7788,1.7785,1.7789,1.7785,1.7784,1.7784,1.7784,0,1.6964,1.6992,1.7046,1.7109,1.7153,1.7205,1.726,1.7283,1.7356,1.7395,1.7454,1.7494,1.7572,1.7631,1.7696,1.7737,1.7772,1.778,1.7785,1.777,1.7746,1.7759,1.7769,1.778,1.778,1.778,1.7781,1.7781,1.6949,1.698,1.7047,1.7104,1.7151,1.7201,1.7236,1.7287,1.7337,1.7407,1.744,1.7498,1.7561,1.7653,1.7692,1.7738,1.7748,1.7756,1.7758,1.7759,1.7754,1.7738,1.775,1.775,1.775,1.775,1.775,0,1.6945,1.699,1.7042,1.7117,1.7161,1.719,1.7251,1.7286,1.7337,1.7392,1.7442,1.7508,1.7565,1.7628,1.7688,1.7713,1.773,1.7726,1.7725,1.7734,1.7742,1.7731,1.7711,1.7711,1.7711,1.7711,1.7711,1.7711,1.6948,1.7001,1.7037,1.7114,1.7159,1.7217,1.7249,1.7294,1.7339,1.7411,1.7458,1.7499,1.7557,1.7622,1.7675,1.7692,1.7711,1.7703,1.7724,1.773,1.7734,1.7737,1.7727,1.7706,1.7706,1.7713,1.7713,1.7713]}]]